Location: ???? ???? ?????
(31.2680°N, 31.7283°E)
Time: 19:43:24
(UTC+00:00)

Cosmos 1680 Rocket - Pass Details

Date: 13 July 2020
Orbit: 760 x 781 km, 74.1° (Epoch: 06 August)

Event Time Altitude Azimuth Distance (km) Brightness Sun altitude
Exits shadow 18:22:07 10° 179° (S) 2,305 5.6 -15.8°
Maximum altitude 18:27:13 54° 102° (ESE) 939 3.6 -16.7°
Drops below altitude 10° 18:32:23 10° 26° (NNE) 2,337 6.2 -17.5°
Sets 18:34:48 0° 22° (NNE) 3,268 7.0 -17.9°
